[[{"header":{"parameterUnit":"m.s-1","parameterCategory":2,"la1":30.2991,"la2":30.254,"lo1":-89.0895,"lo2":-89.0444,"dy":0.0017,"dx":0.0017,"nx":28,"ny":28,"refTime":"2024-08-24T09:00:00:Z","depth":"0","parameterNumber":2,"parameterNumberName":"U-component_of_CURRENTS"},"data":[0,0,0,0,0,0,0,0,0,0,0,0,0,0,0,0,0,0,0,0,0,0,0,0,0,0,0,0,0,0,0,0,0,0,0,0,0,0,0,0,0,0,0,0,0,0,0,0,0,0,0,0,0,0,0,0,0,0,0.1773,0.1773,0,0.1766,0.1766,0.1766,0.1744,0.1744,0.1743,0.1743,0.172,0.172,0.1719,0,0,0,0,0,0,0,0,0,0,0,0,0,0.1766,0.1766,0.1773,0.1773,0.1773,0.1766,0.1766,0.1766,0.1744,0.1744,0.1743,0.1743,0.172,0.172,0.1719,0,0,0,0,0,0,0,0,0,0,0,0,0,0.1764,0.1766,0.1773,0.1762,0.1761,0.1766,0.1766,0.1766,0.1744,0.1744,0.1743,0.1742,0.172,0.172,0.1719,0.1729,0,0,0.1718,0.1718,0,0,0,0,0,0,0,0,0.1764,0.1764,0.1763,0.1763,0.1761,0.1756,0.1755,0.1753,0.1744,0.1749,0.1743,0.1742,0.1732,0.173,0.1729,0.1728,0.1727,0.1718,0.1718,0.1718,0.1718,0,0,0,0,0,0,0,0.1764,0.1764,0.1769,0.1763,0.1762,0.1757,0.1756,0.1755,0.1743,0.1749,0.1748,0.1749,0.1731,0.1729,0.1728,0.1726,0.1718,0.1718,0.1717,0.1717,0.1749,0.175,0,0,0,0,0,0,0.1768,0.1765,0.1769,0.1769,0.1763,0.1758,0.1757,0.1758,0.1743,0.1741,0.1749,0.1748,0.173,0.1729,0.1727,0.1756,0.1718,0.1717,0.1717,0.1748,0.1749,0.1751,0,0,0,0,0,0,0.1768,0.1769,0.1769,0.1767,0.1767,0.1759,0.176,0.1758,0.1758,0.1744,0.1741,0.1752,0.173,0.1728,0.1729,0.1754,0.1717,0.1717,0.1747,0.1749,0.175,0.1801,0,0,0,0,0,0,0.1768,0.1769,0.1773,0.1768,0.1768,0.1782,0.1761,0.1758,0.176,0.1758,0.1745,0.1742,0.1729,0.173,0.1729,0.1753,0.1717,0.1746,0.1748,0.1749,0.1798,0.1804,0.1809,0,0,0,0,0,0.1768,0.1776,0.1773,0.1774,0.1773,0.1783,0.1783,0.1774,0.1761,0.177,0.1756,0.1743,0.1742,0.1731,0.1729,0.1753,0.1745,0.1747,0.1749,0.1795,0.1803,0.1809,0,0,0,0,0,0,0.1773,0.1775,0.1771,0.1779,0.1785,0.178,0.1787,0.1779,0.1775,0.1772,0.1751,0.1748,0.1763,0.175,0.1737,0.1769,0.1744,0.1746,0.1779,0.1786,0.1792,0.1794,0.1716,0,0,0,0,0,0.1778,0.1785,0.1787,0.1794,0.18,0.1794,0.1797,0.1793,0.1788,0.1786,0.1777,0.177,0.1773,0.1771,0.1773,0.1784,0.1793,0.1801,0.1807,0.1812,0.1813,0.1845,0.1854,0.1758,0.1758,0.1758,0,0,0.178,0.1784,0.1786,0.1796,0.1799,0.1809,0.1795,0.1806,0.1812,0.1785,0.1792,0.1791,0.1781,0.1798,0.1804,0.1789,0.1848,0.1815,0.1819,0.1818,0.1848,0.1857,0.1866,0.176,0.176,0.176,0,0,0.1789,0.1795,0.1804,0.1812,0.1824,0.1826,0.1831,0.1834,0.1836,0.1845,0.1831,0.1843,0.184,0.1843,0.1841,0.1879,0.188,0.1883,0.191,0.1941,0.1949,0.1956,0.2,0.2011,0.1883,0.1883,0.1883,0,0.179,0.18,0.1809,0.1821,0.1829,0.1835,0.1846,0.1853,0.1855,0.1862,0.1854,0.1869,0.1863,0.1883,0.1898,0.1893,0.1914,0.1884,0.1949,0.1956,0.1963,0.2005,0.2016,0.1886,0.1885,0.1885,0.1885,0,0.1804,0.1813,0.1822,0.1837,0.1851,0.1865,0.1878,0.1893,0.1897,0.1902,0.1929,0.1927,0.1935,0.1942,0.193,0.1974,0.1977,0.1957,0.1932,0.1975,0.2018,0.2028,0.1889,0.1889,0.1888,0.1887,0,0,0.1794,0.1824,0.1825,0.1835,0.1861,0.1873,0.1897,0.192,0.1939,0.1952,0.1978,0.1991,0.1997,0.1996,0.1993,0.2017,0.2089,0.2009,0.2009,0.2053,0.2175,0.218,0.2192,0.2081,0.2083,0.2084,0.2194,0,0.1798,0.1821,0.1836,0.1858,0.1873,0.1893,0.1913,0.1938,0.1964,0.1996,0.2009,0.2032,0.2015,0.2028,0.2054,0.208,0.2116,0.2062,0.2125,0.2127,0.2126,0.2203,0.208,0.2167,0.2204,0.2206,0.2207,0,0.1798,0.1816,0.1837,0.1869,0.1878,0.1891,0.1935,0.1957,0.2005,0.203,0.2063,0.2075,0.2118,0.2095,0.2168,0.2137,0.2163,0.2181,0.2185,0.2176,0.2151,0.2125,0.2185,0.2151,0.2223,0.2221,0.222,0,0.1783,0.1814,0.1831,0.1841,0.1879,0.1891,0.1914,0.1962,0.1991,0.2057,0.2092,0.2136,0.2173,0.2205,0.2248,0.2214,0.2337,0.229,0.2322,0.2323,0.2222,0.2212,0.2252,0.2347,0.2347,0.2347,0.2347,0,0.1775,0.1786,0.1822,0.183,0.1852,0.1883,0.1916,0.1954,0.2012,0.2051,0.2106,0.2149,0.2203,0.227,0.2288,0.2358,0.2373,0.2351,0.2357,0.2239,0.2229,0.2197,0.2164,0.2351,0.235,0.2349,0.2349,0,0.1747,0.1772,0.1793,0.1832,0.1842,0.1858,0.1906,0.1934,0.2002,0.206,0.2082,0.2183,0.2272,0.2336,0.2415,0.2421,0.2407,0.249,0.2361,0.2351,0.232,0.2294,0.2258,0.2173,0.2534,0.2535,0.2536,0,0.1732,0.174,0.1785,0.1796,0.1809,0.1837,0.1854,0.1918,0.1952,0.2067,0.2092,0.2211,0.2288,0.244,0.2465,0.2533,0.2442,0.2462,0.2365,0.233,0.2306,0.221,0.2132,0.2261,0.2259,0.2258,0.2257,0,0.1698,0.1717,0.1735,0.1765,0.1781,0.1805,0.1836,0.1859,0.1937,0.1997,0.209,0.2167,0.232,0.2352,0.2465,0.2471,0.2331,0.2439,0.2421,0.2123,0.2,0.1916,0.2195,0.2245,0.2246,0.2247,0.2248,0.2248,0.1663,0.1673,0.1701,0.172,0.1743,0.1756,0.1748,0.1797,0.1841,0.19,0.2015,0.2099,0.2208,0.2345,0.2352,0.2312,0.2278,0.2227,0.2213,0.2131,0.1999,0.2277,0.2321,0.2322,0.2323,0.2324,0.2326,0,0.1606,0.1627,0.1652,0.1667,0.1662,0.1697,0.1717,0.1694,0.171,0.1811,0.1877,0.199,0.2053,0.2134,0.2174,0.2107,0.1965,0.2042,0.1856,0.1797,0.2067,0.2005,0.1959,0.1959,0.1959,0.1959,0.1959,0.1959,0.1577,0.1574,0.1592,0.1568,0.1579,0.1536,0.1527,0.1521,0.1564,0.1613,0.168,0.177,0.195,0.2058,0.2036,0.1968,0.1796,0.1705,0.1716,0.1899,0.1913,0.1927,0.1863,0.1788,0.1788,0.1329,0.1326,0.1323]},{"header":{"parameterUnit":"m.s-1","parameterCategory":2,"la1":30.2991,"la2":30.254,"lo1":-89.0895,"lo2":-89.0444,"dy":0.0017,"dx":0.0017,"nx":28,"ny":28,"refTime":"2024-08-24T09:00:00:Z","depth":"0","parameterNumber":3,"parameterNumberName":"V-component_of_CURRENTS"},"data":[0,0,0,0,0,0,0,0,0,0,0,0,0,0,0,0,0,0,0,0,0,0,0,0,0,0,0,0,0,0,0,0,0,0,0,0,0,0,0,0,0,0,0,0,0,0,0,0,0,0,0,0,0,0,0,0,0,0,-0.0178,-0.0178,0,-0.0238,-0.0239,-0.024,-0.0271,-0.0271,-0.0271,-0.0271,-0.034,-0.0342,-0.0343,0,0,0,0,0,0,0,0,0,0,0,0,0,-0.0112,-0.0113,-0.0178,-0.0178,-0.0179,-0.0238,-0.0239,-0.024,-0.0271,-0.0271,-0.0271,-0.0271,-0.0339,-0.0341,-0.0344,0,0,0,0,0,0,0,0,0,0,0,0,0,-0.0154,-0.0114,-0.0178,-0.0201,-0.0204,-0.0238,-0.0239,-0.024,-0.0271,-0.0271,-0.0271,-0.0271,-0.0338,-0.0341,-0.0344,-0.0362,0,0,-0.0352,-0.0354,0,0,0,0,0,0,0,0,-0.0152,-0.0157,-0.0197,-0.02,-0.0203,-0.0246,-0.0241,-0.0281,-0.0271,-0.0246,-0.0271,-0.0271,-0.0309,-0.0314,-0.0326,-0.0365,-0.0368,-0.0353,-0.0354,-0.0356,-0.0356,0,0,0,0,0,0,0,-0.0149,-0.0154,-0.0202,-0.0198,-0.0201,-0.0217,-0.0222,-0.0249,-0.0278,-0.0248,-0.0251,-0.0256,-0.0311,-0.0324,-0.0328,-0.0369,-0.0353,-0.0355,-0.0357,-0.0358,-0.0409,-0.0409,0,0,0,0,0,0,-0.0139,-0.0152,-0.02,-0.0204,-0.0176,-0.0218,-0.0224,-0.0233,-0.0277,-0.0284,-0.0256,-0.0257,-0.0319,-0.0325,-0.0331,-0.0343,-0.0356,-0.0358,-0.036,-0.0409,-0.0409,-0.0409,0,0,0,0,0,0,-0.0137,-0.0143,-0.0198,-0.0178,-0.0186,-0.0219,-0.0228,-0.0234,-0.0245,-0.0283,-0.029,-0.0261,-0.0319,-0.0327,-0.0345,-0.0347,-0.0359,-0.0362,-0.041,-0.0409,-0.0409,-0.0376,0,0,0,0,0,0,-0.0135,-0.0142,-0.0145,-0.0178,-0.0187,-0.0214,-0.0229,-0.0235,-0.0249,-0.0251,-0.0289,-0.0296,-0.032,-0.0341,-0.0348,-0.0351,-0.0364,-0.041,-0.041,-0.0409,-0.0377,-0.0374,-0.0372,0,0,0,0,0,-0.0133,-0.0136,-0.0145,-0.0151,-0.019,-0.0214,-0.022,-0.0243,-0.0249,-0.0253,-0.0273,-0.0295,-0.0342,-0.0343,-0.0351,-0.0355,-0.041,-0.041,-0.0409,-0.0379,-0.0375,-0.0372,0,0,0,0,0,0,-0.0107,-0.014,-0.0151,-0.0163,-0.0184,-0.0218,-0.0225,-0.0239,-0.026,-0.026,-0.0293,-0.0301,-0.0317,-0.0338,-0.0338,-0.0366,-0.0379,-0.038,-0.0353,-0.035,-0.0347,-0.0332,-0.0366,0,0,0,0,0,-0.0103,-0.0115,-0.0146,-0.0154,-0.0164,-0.0193,-0.0205,-0.0219,-0.0242,-0.0251,-0.0276,-0.03,-0.0322,-0.0336,-0.0358,-0.0376,-0.0395,-0.0383,-0.038,-0.0378,-0.037,-0.0404,-0.0403,-0.0406,-0.0406,-0.0406,0,0,-0.0094,-0.0114,-0.012,-0.0149,-0.0168,-0.0175,-0.02,-0.0214,-0.0218,-0.0255,-0.0266,-0.0292,-0.0323,-0.0341,-0.0351,-0.0359,-0.0385,-0.0377,-0.0374,-0.0368,-0.0403,-0.0403,-0.0402,-0.0406,-0.0406,-0.0406,0,0,-0.0077,-0.01,-0.0102,-0.0118,-0.0142,-0.016,-0.0161,-0.0192,-0.0204,-0.0218,-0.0244,-0.0267,-0.0301,-0.0325,-0.0342,-0.0337,-0.0367,-0.0344,-0.0322,-0.0355,-0.0355,-0.0356,-0.0371,-0.0373,-0.0345,-0.0345,-0.0345,0,-0.0063,-0.0073,-0.0105,-0.0108,-0.0114,-0.0149,-0.0145,-0.0165,-0.0195,-0.0201,-0.0214,-0.0261,-0.0294,-0.0315,-0.0314,-0.0332,-0.0347,-0.0334,-0.0352,-0.0353,-0.0353,-0.0369,-0.0372,-0.0343,-0.0343,-0.0343,-0.0344,0,-0.0049,-0.0055,-0.0056,-0.0071,-0.0081,-0.0086,-0.0112,-0.0123,-0.0141,-0.016,-0.0182,-0.0227,-0.0253,-0.0272,-0.0294,-0.0315,-0.0322,-0.0343,-0.036,-0.0351,-0.0368,-0.0372,-0.0341,-0.0341,-0.0342,-0.0342,0,0,-0.0019,-0.0042,-0.004,-0.0039,-0.0062,-0.0066,-0.0071,-0.0087,-0.0083,-0.0122,-0.0123,-0.0175,-0.0199,-0.0218,-0.0255,-0.0289,-0.0315,-0.0315,-0.0318,-0.0329,-0.0373,-0.035,-0.0352,-0.0341,-0.0342,-0.0342,-0.038,0,0.0004,0.0009,-0.0008,0.0005,0.0006,-0.002,-0.0018,-0.0034,-0.0053,-0.0064,-0.0116,-0.0132,-0.0179,-0.0191,-0.0232,-0.0292,-0.0323,-0.0301,-0.0381,-0.0383,-0.0363,-0.0355,-0.0321,-0.0349,-0.0384,-0.0384,-0.0385,0,0.0028,0.0027,0.0041,0.0042,0.0042,0.0049,0.005,0.0046,0.0021,0.0007,-0.0024,-0.0061,-0.0112,-0.0154,-0.0251,-0.0234,-0.0297,-0.0347,-0.0351,-0.0342,-0.0366,-0.0366,-0.0354,-0.0454,-0.039,-0.039,-0.0389,0,0.0063,0.0065,0.0079,0.0078,0.0072,0.0083,0.0083,0.0071,0.0081,0.0054,0.006,-0.0009,-0.0031,-0.0127,-0.0226,-0.0242,-0.0328,-0.0366,-0.0402,-0.0401,-0.0393,-0.0389,-0.0485,-0.0433,-0.0433,-0.0433,-0.0433,0,0.009,0.0104,0.0098,0.0106,0.0135,0.0121,0.0152,0.0142,0.0146,0.0169,0.0102,0.0113,-0.0026,-0.0089,-0.0199,-0.0297,-0.0308,-0.039,-0.041,-0.0378,-0.0373,-0.0476,-0.0558,-0.0434,-0.0434,-0.0434,-0.0434,0,0.0125,0.0117,0.0136,0.0141,0.0151,0.0172,0.0203,0.0225,0.0222,0.0252,0.025,0.0206,0.0135,0.0002,-0.0139,-0.0241,-0.0412,-0.0385,-0.0326,-0.0338,-0.0468,-0.0548,-0.0674,-0.0735,-0.0438,-0.0437,-0.0437,0,0.0141,0.0153,0.0169,0.0186,0.0191,0.0223,0.025,0.0262,0.0296,0.0318,0.0344,0.0298,0.0292,0.0107,-0.0075,-0.0247,-0.0383,-0.0347,-0.0378,-0.0461,-0.0567,-0.0626,-0.0674,-0.0356,-0.0355,-0.0354,-0.0354,0,0.0176,0.018,0.0194,0.0229,0.0259,0.0299,0.0343,0.0388,0.0412,0.0461,0.0522,0.0525,0.0372,0.0235,0.0,-0.0133,-0.0422,-0.0336,-0.0448,-0.0527,-0.0573,-0.0645,-0.0338,-0.0347,-0.0348,-0.0348,-0.0348,-0.0349,0.0208,0.0223,0.0242,0.0276,0.0313,0.0373,0.0423,0.0492,0.0581,0.066,0.0659,0.0697,0.0479,0.0187,-0.0002,-0.0322,-0.0369,-0.0432,-0.0527,-0.058,-0.0632,-0.0294,-0.0308,-0.0309,-0.0309,-0.0309,-0.031,0,0.0251,0.0261,0.029,0.0334,0.0381,0.0395,0.0485,0.055,0.0677,0.0759,0.0828,0.0765,0.0496,0.0189,-0.0232,-0.0467,-0.0581,-0.0615,-0.0705,-0.0751,-0.0463,-0.0449,-0.0462,-0.0461,-0.0461,-0.0461,-0.0461,-0.0461,0.0273,0.0305,0.0313,0.0387,0.0422,0.0501,0.0559,0.0666,0.0752,0.0874,0.092,0.0927,0.0717,-0.0025,-0.0566,-0.0708,-0.0901,-0.0925,-0.1054,-0.0864,-0.0854,-0.0845,-0.085,-0.0946,-0.0947,-0.1284,-0.1287,-0.129]}],[{"header":{"parameterUnit":"m.s-1","parameterCategory":2,"la1":30.2991,"la2":30.254,"lo1":-89.0895,"lo2":-89.0444,"dy":0.0017,"dx":0.0017,"nx":28,"ny":28,"refTime":"2024-08-24T09:00:00:Z","depth":"2","parameterNumber":2,"parameterNumberName":"U-component_of_CURRENTS"},"data":[0,0,0,0,0,0,0,0,0,0,0,0,0,0,0,0,0,0,0,0,0,0,0,0,0,0,0,0,0,0,0,0,0,0,0,0,0,0,0,0,0,0,0,0,0,0,0,0,0,0,0,0,0,0,0,0,0,0,0.1832,0.1832,0,0.1831,0.1831,0.1831,0.1812,0.1811,0.1811,0.181,0.179,0.179,0.179,0,0,0,0,0,0,0,0,0,0,0,0,0,0.1826,0.1826,0.1832,0.1832,0.1832,0.1831,0.1831,0.1831,0.1812,0.1811,0.1811,0.181,0.179,0.179,0.179,0,0,0,0,0,0,0,0,0,0,0,0,0,0.1827,0.1826,0.1832,0.1823,0.1822,0.1831,0.1831,0.1831,0.1812,0.1811,0.1811,0.181,0.179,0.179,0.179,0.1803,0,0,0.1789,0.1789,0,0,0,0,0,0,0,0,0.1827,0.1827,0.1824,0.1823,0.1823,0.1821,0.1822,0.1821,0.1812,0.1815,0.181,0.181,0.18,0.1799,0.18,0.1802,0.1801,0.1789,0.1789,0.1789,0.1789,0,0,0,0,0,0,0,0.1827,0.1827,0.1832,0.1824,0.1823,0.1822,0.1821,0.1822,0.1811,0.1815,0.1814,0.1814,0.1799,0.18,0.1799,0.1801,0.1789,0.1789,0.1789,0.1789,0.1825,0.1826,0,0,0,0,0,0,0.1828,0.1827,0.1832,0.1832,0.1823,0.1822,0.1821,0.1822,0.1811,0.1809,0.1815,0.1814,0.1801,0.1799,0.1798,0.1827,0.1789,0.1789,0.1789,0.1824,0.1826,0.1827,0,0,0,0,0,0,0.1828,0.1828,0.1832,0.1829,0.183,0.1823,0.1824,0.1823,0.1824,0.1811,0.1809,0.1819,0.18,0.1798,0.1801,0.1826,0.1789,0.1789,0.1823,0.1825,0.1826,0.1877,0,0,0,0,0,0,0.1828,0.1828,0.1833,0.183,0.183,0.1847,0.1825,0.1823,0.1826,0.1824,0.1814,0.1811,0.1799,0.1802,0.1801,0.1825,0.1789,0.1822,0.1824,0.1826,0.1874,0.188,0.1885,0,0,0,0,0,0.1827,0.1837,0.1834,0.1834,0.1836,0.1848,0.1848,0.184,0.1827,0.1837,0.1824,0.1811,0.1814,0.1802,0.1802,0.1826,0.1821,0.1823,0.1825,0.1871,0.1879,0.1885,0,0,0,0,0,0,0.1833,0.1836,0.1832,0.184,0.1848,0.1844,0.1853,0.1845,0.1844,0.184,0.1821,0.1818,0.1834,0.1822,0.1809,0.1843,0.1817,0.182,0.1852,0.1859,0.1865,0.1867,0.1789,0,0,0,0,0,0.1838,0.1847,0.1849,0.1857,0.1863,0.1859,0.1863,0.1859,0.1856,0.1854,0.1846,0.184,0.1845,0.1844,0.1846,0.186,0.1869,0.1877,0.1882,0.1887,0.1889,0.1922,0.1931,0.1834,0.1834,0.1834,0,0,0.1841,0.1844,0.1848,0.1859,0.1863,0.1875,0.186,0.1872,0.1879,0.1853,0.1862,0.1862,0.1854,0.1872,0.1878,0.1863,0.1924,0.189,0.1894,0.1894,0.1925,0.1935,0.1943,0.1836,0.1836,0.1836,0,0,0.1851,0.1858,0.1868,0.1877,0.1889,0.1892,0.1897,0.1902,0.1904,0.1915,0.1901,0.1913,0.1914,0.1917,0.1916,0.1954,0.1956,0.1959,0.1985,0.2018,0.2026,0.2033,0.2076,0.2087,0.1958,0.1958,0.1958,0,0.1852,0.1863,0.1874,0.1885,0.1893,0.19,0.1912,0.1921,0.1925,0.1933,0.1924,0.1941,0.1937,0.1958,0.1972,0.1968,0.1989,0.196,0.2026,0.2033,0.2039,0.2081,0.2093,0.1961,0.196,0.196,0.196,0,0.1867,0.1876,0.1886,0.1902,0.1917,0.1932,0.1946,0.1963,0.1967,0.1974,0.2001,0.2001,0.2009,0.2017,0.2005,0.2051,0.2053,0.2033,0.2009,0.2052,0.2094,0.2105,0.1964,0.1963,0.1963,0.1962,0,0,0.1856,0.1889,0.1889,0.19,0.1927,0.1939,0.1966,0.1992,0.2011,0.2025,0.2052,0.2067,0.2072,0.2071,0.2068,0.2094,0.2167,0.2086,0.2086,0.2129,0.2254,0.2211,0.2218,0.216,0.2161,0.2163,0.2271,0,0.1859,0.1883,0.19,0.1923,0.1938,0.196,0.1983,0.2009,0.2037,0.207,0.2084,0.2108,0.2091,0.2103,0.2129,0.2157,0.2194,0.214,0.2203,0.2206,0.2163,0.2228,0.202,0.2095,0.2282,0.2283,0.2285,0,0.186,0.1878,0.19,0.1934,0.1943,0.1958,0.2004,0.2028,0.2079,0.2104,0.2137,0.215,0.2194,0.2171,0.2245,0.2213,0.2241,0.226,0.2264,0.221,0.2182,0.2078,0.2107,0.2302,0.2301,0.2299,0.2298,0,0.1843,0.1875,0.1894,0.1904,0.1945,0.1959,0.1983,0.2033,0.2063,0.213,0.2165,0.221,0.2246,0.228,0.2324,0.2291,0.2415,0.2369,0.236,0.2358,0.2185,0.2164,0.2429,0.2429,0.2429,0.2429,0.2428,0,0.1835,0.1847,0.1885,0.1893,0.1916,0.1949,0.1983,0.2022,0.2082,0.2121,0.2178,0.222,0.2277,0.2345,0.2364,0.241,0.2451,0.2384,0.2386,0.2199,0.2179,0.2349,0.2338,0.2433,0.2432,0.2431,0.243,0,0.1807,0.1833,0.1856,0.1896,0.1906,0.1923,0.1973,0.2002,0.207,0.2128,0.215,0.2253,0.234,0.2405,0.2488,0.2465,0.2507,0.2513,0.2301,0.2275,0.2417,0.2408,0.25,0.25,0.2499,0.2499,0.2499,0,0.1793,0.1802,0.1848,0.1859,0.1873,0.1902,0.1919,0.1985,0.2019,0.2134,0.2159,0.2277,0.2336,0.2464,0.2466,0.2513,0.2545,0.2329,0.2211,0.2433,0.2426,0.2418,0.2409,0.2015,0.201,0.2007,0.2004,0,0.176,0.1779,0.1798,0.1829,0.1846,0.187,0.1901,0.1925,0.2002,0.206,0.2146,0.2206,0.2325,0.2278,0.2348,0.2333,0.2297,0.2258,0.2558,0.2025,0.1983,0.1974,0.198,0.1973,0.1976,0.1979,0.198,0.1981,0.1726,0.1736,0.1765,0.1784,0.1808,0.1822,0.1813,0.186,0.1901,0.1934,0.2039,0.205,0.2086,0.2082,0.205,0.203,0.2178,0.2046,0.2053,0.2065,0.1986,0.1944,0.1914,0.1917,0.1919,0.1921,0.1923,0,0.1668,0.169,0.1716,0.1733,0.173,0.1763,0.1783,0.1756,0.1765,0.1803,0.1832,0.1695,0.1669,0.1727,0.1652,0.1666,0.162,0.1586,0.1491,0.1524,0.1553,0.1444,0.123,0.1228,0.1226,0.1224,0,0,0.1638,0.1637,0.1655,0.1634,0.1646,0.1609,0.1599,0.1582,0.1585,0.1536,0.1499,0.1555,0.1654,0.1398,0.1384,0.1294,0.1391,0.1242,0.18,0.172,0.1746,0.1827,0.1698,0,0,0,0,0]},{"header":{"parameterUnit":"m.s-1","parameterCategory":2,"la1":30.2991,"la2":30.254,"lo1":-89.0895,"lo2":-89.0444,"dy":0.0017,"dx":0.0017,"nx":28,"ny":28,"refTime":"2024-08-24T09:00:00:Z","depth":"2","parameterNumber":3,"parameterNumberName":"V-component_of_CURRENTS"},"data":[0,0,0,0,0,0,0,0,0,0,0,0,0,0,0,0,0,0,0,0,0,0,0,0,0,0,0,0,0,0,0,0,0,0,0,0,0,0,0,0,0,0,0,0,0,0,0,0,0,0,0,0,0,0,0,0,0,0,-0.0158,-0.0158,0,-0.0219,-0.022,-0.0221,-0.0254,-0.0254,-0.0254,-0.0254,-0.0322,-0.0324,-0.0326,0,0,0,0,0,0,0,0,0,0,0,0,0,-0.01,-0.0101,-0.0158,-0.0158,-0.0159,-0.0219,-0.022,-0.0221,-0.0254,-0.0254,-0.0254,-0.0254,-0.0321,-0.0324,-0.0326,0,0,0,0,0,0,0,0,0,0,0,0,0,-0.014,-0.0101,-0.0158,-0.0182,-0.0184,-0.0219,-0.022,-0.0221,-0.0254,-0.0254,-0.0254,-0.0254,-0.0321,-0.0323,-0.0326,-0.0345,0,0,-0.0335,-0.0336,0,0,0,0,0,0,0,0,-0.0138,-0.0143,-0.0178,-0.018,-0.0183,-0.0228,-0.0224,-0.0262,-0.0254,-0.0229,-0.0254,-0.0254,-0.029,-0.0296,-0.0309,-0.0348,-0.0351,-0.0335,-0.0337,-0.0338,-0.0339,0,0,0,0,0,0,0,-0.0135,-0.014,-0.0183,-0.0178,-0.0182,-0.02,-0.0205,-0.0232,-0.026,-0.0231,-0.0233,-0.0238,-0.0292,-0.0306,-0.0311,-0.0352,-0.0335,-0.0337,-0.0339,-0.034,-0.0392,-0.0391,0,0,0,0,0,0,-0.0124,-0.0138,-0.0181,-0.0185,-0.0159,-0.0201,-0.0207,-0.0214,-0.026,-0.0267,-0.0238,-0.0239,-0.0302,-0.0308,-0.0313,-0.0327,-0.0338,-0.034,-0.0342,-0.0392,-0.0391,-0.0391,0,0,0,0,0,0,-0.0122,-0.0127,-0.0179,-0.0161,-0.0169,-0.0201,-0.021,-0.0216,-0.0229,-0.0265,-0.0272,-0.0245,-0.0302,-0.0309,-0.0328,-0.033,-0.0342,-0.0344,-0.0392,-0.0392,-0.0391,-0.036,0,0,0,0,0,0,-0.012,-0.0126,-0.0129,-0.0161,-0.017,-0.0195,-0.021,-0.0217,-0.0231,-0.0234,-0.0273,-0.0279,-0.0302,-0.0323,-0.0331,-0.0334,-0.0346,-0.0393,-0.0392,-0.0391,-0.0362,-0.0359,-0.0356,0,0,0,0,0,-0.0118,-0.0121,-0.0129,-0.0135,-0.0173,-0.0195,-0.0202,-0.0225,-0.0231,-0.0237,-0.0257,-0.0278,-0.0325,-0.0325,-0.0334,-0.0338,-0.0393,-0.0392,-0.0391,-0.0363,-0.0359,-0.0357,0,0,0,0,0,0,-0.0095,-0.0126,-0.0135,-0.0147,-0.0167,-0.02,-0.0208,-0.0222,-0.0244,-0.0244,-0.0276,-0.0284,-0.0301,-0.0321,-0.0321,-0.035,-0.0362,-0.0363,-0.0337,-0.0334,-0.0332,-0.0316,-0.0349,0,0,0,0,0,-0.0091,-0.0103,-0.0131,-0.0139,-0.0148,-0.0177,-0.0189,-0.0204,-0.0226,-0.0236,-0.0261,-0.0285,-0.0306,-0.032,-0.0342,-0.036,-0.0378,-0.0367,-0.0364,-0.0362,-0.0354,-0.0388,-0.0388,-0.0389,-0.0389,-0.0389,0,0,-0.0084,-0.0101,-0.0108,-0.0135,-0.0153,-0.016,-0.0185,-0.0199,-0.0203,-0.024,-0.0252,-0.0277,-0.0307,-0.0325,-0.0335,-0.0342,-0.0369,-0.0361,-0.0359,-0.0352,-0.0388,-0.0388,-0.0388,-0.0388,-0.0389,-0.0389,0,0,-0.0068,-0.009,-0.0092,-0.0106,-0.0129,-0.0147,-0.0148,-0.0178,-0.0191,-0.0206,-0.0231,-0.0254,-0.0288,-0.0311,-0.0327,-0.0322,-0.0352,-0.033,-0.0309,-0.0342,-0.0343,-0.0343,-0.0358,-0.036,-0.0331,-0.0331,-0.0331,0,-0.0056,-0.0064,-0.0095,-0.0097,-0.0102,-0.0137,-0.0133,-0.0153,-0.0183,-0.0189,-0.0202,-0.0249,-0.0281,-0.0301,-0.0301,-0.0318,-0.0334,-0.032,-0.0339,-0.034,-0.0341,-0.0357,-0.036,-0.0329,-0.0329,-0.0329,-0.033,0,-0.0041,-0.0047,-0.0048,-0.0061,-0.0071,-0.0076,-0.0101,-0.0112,-0.0131,-0.0149,-0.0172,-0.0216,-0.0241,-0.026,-0.0281,-0.0303,-0.031,-0.0331,-0.0348,-0.034,-0.0356,-0.0359,-0.0327,-0.0327,-0.0328,-0.0328,0,0,-0.0013,-0.0034,-0.0033,-0.003,-0.0052,-0.0056,-0.0061,-0.0076,-0.0072,-0.0112,-0.0113,-0.0164,-0.0189,-0.0207,-0.0243,-0.0278,-0.0305,-0.0304,-0.0307,-0.0318,-0.0365,-0.0329,-0.033,-0.0333,-0.0333,-0.0334,-0.0371,0,0.001,0.0016,-0.0,0.0013,0.0015,-0.001,-0.0009,-0.0024,-0.0043,-0.0054,-0.0106,-0.0122,-0.0168,-0.018,-0.0223,-0.0281,-0.0314,-0.0292,-0.0371,-0.0373,-0.0342,-0.0332,-0.0309,-0.0337,-0.0374,-0.0375,-0.0375,0,0.0033,0.0033,0.0048,0.0051,0.0051,0.0057,0.0059,0.0055,0.0031,0.0016,-0.0014,-0.0051,-0.0102,-0.0144,-0.0241,-0.0225,-0.0288,-0.0339,-0.0342,-0.0321,-0.0344,-0.0353,-0.0342,-0.0381,-0.0381,-0.038,-0.038,0,0.0067,0.007,0.0084,0.0084,0.008,0.009,0.0091,0.0079,0.009,0.0063,0.0069,0.0001,-0.0021,-0.0118,-0.0217,-0.0233,-0.0319,-0.0358,-0.0384,-0.0382,-0.0382,-0.0378,-0.0427,-0.0427,-0.0427,-0.0427,-0.0427,0,0.0094,0.0108,0.0103,0.0111,0.014,0.0128,0.0159,0.0149,0.0153,0.0177,0.011,0.0122,-0.0017,-0.008,-0.019,-0.0281,-0.0299,-0.037,-0.0388,-0.0368,-0.0363,-0.0421,-0.0419,-0.0428,-0.0428,-0.0428,-0.0427,0,0.0127,0.012,0.0139,0.0146,0.0155,0.0176,0.0209,0.0231,0.0228,0.0259,0.0256,0.0213,0.0144,0.0012,-0.013,-0.0224,-0.0332,-0.0362,-0.0314,-0.0325,-0.0382,-0.0379,-0.0401,-0.04,-0.0399,-0.0398,-0.0397,0,0.0143,0.0155,0.0171,0.0187,0.0193,0.0226,0.0253,0.0266,0.0302,0.0325,0.035,0.0306,0.0295,0.0118,-0.0058,-0.0226,-0.0278,-0.0317,-0.0348,-0.0363,-0.0379,-0.0378,-0.0375,-0.0341,-0.034,-0.0339,-0.0338,0,0.0178,0.0181,0.0195,0.0229,0.026,0.03,0.0345,0.0391,0.0416,0.0464,0.0524,0.0523,0.0371,0.0228,0.0005,-0.0116,-0.029,-0.0303,-0.0343,-0.0338,-0.0307,-0.0322,-0.0323,-0.0331,-0.0332,-0.0332,-0.0333,-0.0333,0.0208,0.0223,0.0242,0.0275,0.0312,0.0373,0.0423,0.049,0.0578,0.0636,0.0638,0.063,0.0466,0.0196,0.0015,-0.0198,-0.0206,-0.0302,-0.0306,-0.031,-0.0283,-0.0251,-0.0259,-0.026,-0.026,-0.026,-0.026,0,0.0251,0.026,0.0289,0.0332,0.0379,0.0393,0.0484,0.0536,0.0658,0.0692,0.074,0.0594,0.0452,0.0245,-0.0047,-0.0209,-0.0248,-0.0272,-0.0292,-0.0297,-0.0302,-0.0276,-0.025,-0.0251,-0.0251,-0.0251,0,0,0.0272,0.0304,0.0311,0.0385,0.0419,0.0496,0.0553,0.0633,0.0678,0.0729,0.0721,0.0689,0.0483,0.0274,0.0063,-0.0102,-0.0173,-0.0138,-0.0128,-0.0132,-0.0135,-0.0297,-0.0259,0,0,0,0,0]}],[{"header":{"parameterUnit":"m.s-1","parameterCategory":2,"la1":30.2991,"la2":30.254,"lo1":-89.0895,"lo2":-89.0444,"dy":0.0017,"dx":0.0017,"nx":28,"ny":28,"refTime":"2024-08-24T09:00:00:Z","depth":"4","parameterNumber":2,"parameterNumberName":"U-component_of_CURRENTS"},"data":[0,0,0,0,0,0,0,0,0,0,0,0,0,0,0,0,0,0,0,0,0,0,0,0,0,0,0,0,0,0,0,0,0,0,0,0,0,0,0,0,0,0,0,0,0,0,0,0,0,0,0,0,0,0,0,0,0,0,0.1057,0.1058,0,0.1088,0.1089,0.1089,0.1129,0.1129,0.113,0.1131,0.1185,0.1186,0.1186,0,0,0,0,0,0,0,0,0,0,0,0,0,0.1031,0.1031,0.1057,0.1058,0.1058,0.1088,0.1089,0.1089,0.1129,0.1129,0.113,0.1131,0.1185,0.1185,0.1186,0,0,0,0,0,0,0,0,0,0,0,0,0,0.1049,0.1031,0.1057,0.1082,0.1085,0.1088,0.1089,0.1089,0.1128,0.1129,0.1131,0.1132,0.1184,0.1185,0.1186,0.1171,0,0,0.119,0.119,0,0,0,0,0,0,0,0,0.1048,0.105,0.1078,0.108,0.1083,0.1107,0.1099,0.1118,0.1128,0.1111,0.1131,0.1132,0.1161,0.1164,0.1165,0.1174,0.1176,0.119,0.1191,0.1191,0.1192,0,0,0,0,0,0,0,0.1047,0.1049,0.1068,0.1078,0.1082,0.1092,0.1095,0.1103,0.1129,0.1112,0.1116,0.112,0.1162,0.1164,0.1167,0.1177,0.119,0.1191,0.1192,0.1192,0.1266,0.1268,0,0,0,0,0,0,0.1044,0.1047,0.1067,0.107,0.1069,0.1091,0.1095,0.1097,0.1128,0.1134,0.1119,0.1122,0.1162,0.1166,0.1169,0.1232,0.1191,0.1192,0.1193,0.1265,0.1267,0.1268,0,0,0,0,0,0,0.1043,0.1045,0.1066,0.106,0.1064,0.1091,0.1092,0.1097,0.1126,0.1134,0.114,0.1146,0.1163,0.1168,0.1206,0.1232,0.1193,0.1194,0.1264,0.1266,0.1267,0.1308,0,0,0,0,0,0,0.1042,0.1044,0.1056,0.106,0.1064,0.1084,0.1092,0.1097,0.1126,0.1131,0.1158,0.1163,0.1164,0.1204,0.1207,0.1233,0.1195,0.1262,0.1265,0.1267,0.1305,0.1311,0.1316,0,0,0,0,0,0.1041,0.1045,0.1056,0.106,0.1076,0.1085,0.1089,0.111,0.1127,0.114,0.1167,0.1163,0.1222,0.1206,0.1209,0.1236,0.1261,0.1264,0.1267,0.1302,0.131,0.1316,0,0,0,0,0,0,0.1041,0.105,0.1062,0.1071,0.1087,0.1093,0.1109,0.1123,0.1154,0.1167,0.1177,0.1184,0.1227,0.1226,0.1209,0.1265,0.1241,0.1245,0.1268,0.1275,0.128,0.128,0.1196,0,0,0,0,0,0.1045,0.1055,0.1065,0.1077,0.1085,0.1103,0.1115,0.113,0.115,0.1166,0.1188,0.1213,0.1235,0.1252,0.1268,0.1296,0.1294,0.1317,0.1322,0.1327,0.133,0.1352,0.136,0.1278,0.1278,0.1278,0,0,0.1051,0.1057,0.1065,0.1079,0.1093,0.1108,0.1113,0.1137,0.1158,0.1166,0.1212,0.1234,0.1248,0.1284,0.1303,0.129,0.135,0.1331,0.1334,0.1335,0.1356,0.1364,0.1371,0.128,0.1279,0.1279,0,0,0.1057,0.1072,0.1081,0.1097,0.1121,0.1127,0.114,0.1163,0.1186,0.1224,0.1241,0.1277,0.1312,0.1327,0.1337,0.1381,0.1379,0.1397,0.1425,0.1448,0.1455,0.1461,0.1467,0.1473,0.14,0.14,0.14,0,0.107,0.1077,0.1087,0.1102,0.1118,0.1139,0.1155,0.1176,0.1214,0.1237,0.1247,0.1314,0.1327,0.1367,0.1392,0.1393,0.1406,0.1397,0.1455,0.146,0.1466,0.1471,0.1477,0.1402,0.1402,0.1401,0.1401,0,0.1075,0.1095,0.1103,0.1127,0.1144,0.1164,0.1187,0.1221,0.1252,0.1274,0.1332,0.1354,0.1396,0.1409,0.1417,0.1468,0.1466,0.1458,0.1435,0.1476,0.1479,0.1485,0.1405,0.1404,0.1404,0.1403,0,0,0.1071,0.1101,0.111,0.1125,0.1162,0.117,0.1213,0.1248,0.1284,0.1328,0.1375,0.1419,0.1445,0.1459,0.1477,0.1501,0.155,0.1508,0.1508,0.1509,0.1603,0.1525,0.1523,0.1564,0.1566,0.1567,0.1589,0,0.1079,0.11,0.1118,0.1151,0.1162,0.1201,0.1236,0.1277,0.1316,0.1369,0.1403,0.1455,0.1459,0.1496,0.1521,0.1551,0.1569,0.1545,0.1567,0.1567,0.1488,0.1528,0.1571,0.1593,0.1594,0.1595,0.1596,0,0.1078,0.1091,0.1117,0.1158,0.117,0.1201,0.126,0.1297,0.1369,0.1406,0.1463,0.1497,0.1555,0.1547,0.1604,0.1598,0.1608,0.1616,0.1616,0.1532,0.1499,0.1544,0.1606,0.1605,0.1604,0.1603,0.1603,0,0.1049,0.1093,0.111,0.1127,0.1176,0.121,0.125,0.1317,0.1355,0.1443,0.1482,0.1546,0.1594,0.162,0.1651,0.1642,0.1701,0.1679,0.1608,0.1602,0.1646,0.164,0.1707,0.1707,0.1707,0.1707,0.1707,0,0.1034,0.1056,0.1106,0.1117,0.1153,0.1203,0.1257,0.1309,0.139,0.1432,0.1508,0.1544,0.1623,0.1664,0.1671,0.1662,0.1715,0.1617,0.1606,0.1663,0.1658,0.165,0.1643,0.1707,0.1707,0.1707,0.1707,0,0.0996,0.103,0.1053,0.1112,0.1138,0.1168,0.1255,0.129,0.138,0.1441,0.1476,0.1571,0.1627,0.1677,0.1725,0.168,0.1679,0.1658,0.172,0.1711,0.1555,0.155,0.1569,0.1566,0.1564,0.1563,0.1561,0,0.0975,0.0983,0.104,0.1054,0.1087,0.1144,0.1181,0.1277,0.1312,0.1433,0.145,0.1551,0.16,0.1595,0.1659,0.1666,0.1649,0.163,0.1585,0.1556,0.1544,0.1542,0.154,0.1558,0.1557,0.1557,0.1556,0,0.0934,0.0962,0.0977,0.1006,0.1044,0.1073,0.1138,0.1154,0.1262,0.1355,0.1392,0.1431,0.1494,0.1535,0.1569,0.1564,0.1633,0.1607,0.1611,0.1568,0.1542,0.1532,0.1532,0.1549,0.155,0.155,0.1551,0,0.0909,0.0906,0.093,0.0947,0.0985,0.0987,0.1029,0.1071,0.1121,0.1258,0.1267,0.1371,0.1471,0.1483,0.1503,0.1512,0.1483,0.1422,0.1435,0.1444,0.1397,0.1345,0.1286,0,0,0,0,0,0.0879,0.0863,0.0869,0.0872,0.0903,0.0929,0.099,0.1035,0.114,0.1134,0.1198,0.1249,0.1301,0.1356,0.134,0.1453,0.1489,0.1428,0.1425,0.1508,0.1517,0.1476,0,0,0,0,0,0,0.0853,0.0858,0.0843,0.0807,0.0803,0.0828,0.0865,0.0933,0.0934,0.1049,0.1083,0.1178,0.1247,0.1303,0.132,0.1338,0.131,0.1502,0.1498,0.1503,0.1511,0.1518,0.1479,0,0,0,0,0]},{"header":{"parameterUnit":"m.s-1","parameterCategory":2,"la1":30.2991,"la2":30.254,"lo1":-89.0895,"lo2":-89.0444,"dy":0.0017,"dx":0.0017,"nx":28,"ny":28,"refTime":"2024-08-24T09:00:00:Z","depth":"4","parameterNumber":3,"parameterNumberName":"V-component_of_CURRENTS"},"data":[0,0,0,0,0,0,0,0,0,0,0,0,0,0,0,0,0,0,0,0,0,0,0,0,0,0,0,0,0,0,0,0,0,0,0,0,0,0,0,0,0,0,0,0,0,0,0,0,0,0,0,0,0,0,0,0,0,0,0.0064,0.0064,0,0.0043,0.0043,0.0042,0.0027,0.0027,0.0026,0.0026,-0.0011,-0.0011,-0.0012,0,0,0,0,0,0,0,0,0,0,0,0,0,0.0077,0.0077,0.0064,0.0064,0.0063,0.0043,0.0043,0.0042,0.0027,0.0027,0.0026,0.0026,-0.001,-0.0011,-0.0012,0,0,0,0,0,0,0,0,0,0,0,0,0,0.0066,0.0077,0.0064,0.0053,0.0051,0.0043,0.0043,0.0042,0.0027,0.0026,0.0026,0.0026,-0.001,-0.0011,-0.0012,-0.0013,0,0,-0.0016,-0.0016,0,0,0,0,0,0,0,0,0.0067,0.0066,0.0055,0.0053,0.0052,0.0036,0.0034,0.0023,0.0027,0.0037,0.0026,0.0026,0.0003,0.0001,-0.0001,-0.0015,-0.0016,-0.0016,-0.0017,-0.0017,-0.0017,0,0,0,0,0,0,0,0.0067,0.0066,0.0057,0.0054,0.0053,0.0043,0.0042,0.0032,0.0023,0.0036,0.0035,0.0031,0.0003,0.0,-0.0002,-0.0017,-0.0016,-0.0017,-0.0018,-0.0018,-0.0045,-0.0045,0,0,0,0,0,0,0.0069,0.0067,0.0057,0.0056,0.0058,0.0043,0.0042,0.0042,0.0023,0.002,0.0031,0.003,0.0003,-0.0,-0.0003,-0.0004,-0.0017,-0.0018,-0.0019,-0.0045,-0.0045,-0.0045,0,0,0,0,0,0,0.007,0.0069,0.0058,0.006,0.0058,0.0044,0.0045,0.0042,0.0039,0.0019,0.0016,0.003,0.0002,-0.0002,-0.0013,-0.0006,-0.0019,-0.002,-0.0045,-0.0045,-0.0045,-0.0007,0,0,0,0,0,0,0.007,0.0069,0.0073,0.006,0.0058,0.0058,0.0045,0.0042,0.0036,0.0035,0.0017,0.0014,0.0002,-0.0011,-0.0014,-0.0008,-0.0021,-0.0045,-0.0045,-0.0045,-0.0009,-0.0006,-0.0004,0,0,0,0,0,0.0071,0.0077,0.0073,0.0072,0.0063,0.0058,0.0057,0.0046,0.0037,0.004,0.0024,0.0014,-0.0013,-0.0012,-0.0016,-0.0009,-0.0045,-0.0045,-0.0045,-0.001,-0.0007,-0.0004,0,0,0,0,0,0,0.0083,0.0076,0.0071,0.0075,0.0069,0.0056,0.0058,0.0047,0.0038,0.0035,0.0015,0.001,0.0003,-0.001,-0.0008,-0.0018,-0.0031,-0.0032,-0.0003,-0.0001,0.0002,0.0013,-0.0022,0,0,0,0,0,0.0088,0.0091,0.0082,0.0084,0.0085,0.0071,0.0068,0.006,0.0048,0.0043,0.0031,0.0015,0.0001,-0.0006,-0.0017,-0.0022,-0.0035,-0.0022,-0.002,-0.0018,-0.0012,-0.0022,-0.002,-0.0045,-0.0045,-0.0045,0,0,0.0092,0.0088,0.009,0.0087,0.0083,0.0086,0.0069,0.0067,0.0068,0.004,0.0042,0.0024,0.0001,-0.0004,-0.0008,-0.0014,-0.0019,-0.0018,-0.0015,-0.0011,-0.0022,-0.0019,-0.0017,-0.0045,-0.0045,-0.0045,0,0,0.0102,0.0102,0.0109,0.0108,0.0103,0.0097,0.0097,0.0088,0.0085,0.008,0.0059,0.0046,0.0029,0.0016,0.0005,0.0012,-0.0006,0.0006,0.0027,0.0018,0.002,0.0022,0.0004,0.0004,0.0007,0.0007,0.0007,0,0.0107,0.0115,0.011,0.0116,0.0119,0.0104,0.0113,0.0108,0.0095,0.0096,0.0085,0.0058,0.0039,0.003,0.003,0.0018,0.0007,0.0021,0.0022,0.0023,0.0025,0.0007,0.0006,0.0008,0.0008,0.0008,0.0008,0,0.0121,0.0129,0.0135,0.014,0.0144,0.0149,0.0144,0.0146,0.0138,0.0131,0.0123,0.0096,0.008,0.007,0.0052,0.005,0.0037,0.0027,0.0018,0.003,0.0009,0.0008,0.0011,0.001,0.001,0.0009,0,0,0.0128,0.0143,0.0145,0.0157,0.0158,0.0164,0.0171,0.0176,0.0185,0.0167,0.0173,0.0145,0.013,0.0116,0.009,0.008,0.0074,0.006,0.0058,0.0049,0.0048,0.0021,0.0017,0.0066,0.0067,0.0067,0.0028,0,0.0142,0.0163,0.0166,0.0189,0.0203,0.02,0.0211,0.0212,0.021,0.0213,0.0183,0.0178,0.0147,0.0139,0.0123,0.0088,0.0073,0.0085,0.0032,0.0031,0.0011,0.0016,0.0067,0.0027,0.0027,0.0027,0.0027,0,0.0156,0.0171,0.0196,0.0222,0.0229,0.024,0.0262,0.027,0.0268,0.0266,0.0252,0.0229,0.0204,0.0178,0.0127,0.0136,0.0096,0.0067,0.0064,0.0028,0.0003,0.0013,0.0025,0.0025,0.0025,0.0025,0.0025,0,0.0168,0.0194,0.0218,0.0225,0.0249,0.0263,0.0277,0.0286,0.0305,0.03,0.0306,0.0272,0.0256,0.0207,0.014,0.0136,0.0083,0.0069,0.0006,0.0003,0.0023,0.0021,0.0036,0.0036,0.0036,0.0036,0.0036,0,0.0182,0.0204,0.0227,0.0241,0.0277,0.0286,0.0323,0.033,0.0346,0.0369,0.0335,0.0335,0.0265,0.0222,0.0157,0.0077,0.0094,0.0011,-0.0006,0.0037,0.0038,0.0021,0.002,0.0034,0.0035,0.0035,0.0035,0,0.0192,0.0206,0.0239,0.027,0.0284,0.031,0.0358,0.0385,0.0393,0.042,0.0419,0.0386,0.0326,0.0248,0.0166,0.0101,0.0027,-0.0007,0.0044,0.003,-0.0052,-0.0051,-0.0079,-0.008,-0.0081,-0.0082,-0.0083,0,0.02,0.0216,0.026,0.0285,0.0302,0.0344,0.0376,0.0405,0.0434,0.0449,0.0458,0.0413,0.0375,0.0243,0.0155,0.0027,0.0004,-0.004,-0.0047,-0.0048,-0.0063,-0.006,-0.0057,-0.0084,-0.0085,-0.0085,-0.0085,0,0.0215,0.0228,0.0254,0.0303,0.0342,0.0391,0.0436,0.0459,0.0489,0.05,0.0488,0.0418,0.0346,0.0239,0.0138,0.0046,-0.0013,-0.0051,-0.005,-0.0056,-0.0055,-0.0068,-0.0064,-0.0089,-0.0088,-0.0088,-0.0088,0,0.0225,0.0243,0.0274,0.0316,0.0369,0.0417,0.0444,0.0474,0.0502,0.0514,0.0509,0.0432,0.0394,0.0248,0.0157,0.0061,0.003,-0.0009,-0.001,-0.0008,0.0018,0.003,0.0012,0,0,0,0,0,0.0233,0.0248,0.0287,0.033,0.0382,0.041,0.0474,0.0497,0.0524,0.0519,0.0516,0.0447,0.0308,0.0253,0.0152,0.0125,0.0006,0.0001,-0.0041,-0.0108,-0.0104,-0.0089,0,0,0,0,0,0,0.0236,0.0267,0.0281,0.0333,0.036,0.0419,0.0458,0.048,0.0479,0.0492,0.0426,0.04,0.0271,0.036,0.014,0.0112,0.0067,-0.0058,-0.006,-0.0111,-0.0107,-0.0104,-0.0087,0,0,0,0,0]}]]